Find Local Weather

World > North America > United States > New Jersey

Somerdale, New Jersey Regional Weather

Lat: 39.84N, Lon: 75.02W
Wx Zone: NJZ018
Feedback

Somerdale, NJ Regional Weather

Expires:201905251700;;442756
ASUS41 KPHI 251612
RWRPHI

REGIONAL WEATHER ROUNDUP
NATIONAL WEATHER SERVICE MOUNT HOLLY NJ
1200 PM EDT SAT MAY 25 2019

NOTE:  "FAIR" INDICATES FEW OR NO CLOUDS BELOW 12,000 FEET WITH NO
SIGNIFICANT WEATHER AND/OR OBSTRUCTIONS TO VISIBILITY.

 * = STATION DOES NOT REPORT PRECIPITATION (E.G. RAIN, SNOW, ETC.) 
        OR FOG.


NJZ015>026-251700-
SOUTHERN NEW JERSEY
  
CITY           SKY/WX    TMP DP  RH WIND       PRES   REMARKS
POMONA         FAIR      67  49  52 SE12      30.26S                  
WILDWOOD*      FAIR      69  55  60 S12       30.26S                  
MILLVILLE      FAIR      69  53  56 S8        30.24S                  
MOUNT HOLLY    PTSUNNY   70  54  56 VRB5      30.24S                  
TRENTON        CLOUDY    67  54  63 S12       30.23F                  

$$

SKY/WX - Weather  TMP - Temperature  DP - Dew Point  RH - Relative Humidity
WIND - Wind Direction/Speed PRES - Barometric Pressure VSB - Visibility
WCI - Wind Chill Index E13G22 Wind - East Wind 13 mph/Gusts of 22 mph